{"data":{"norad_id":57288,"epoch":"2026-09-21T21:53:53.628000Z","epoch_age_seconds":83069,"freshness":"FRESH","line1":"1 57288U 23095A   26264.91242625  .00000034  00000+0  34643-4 0  9990","line2":"2 57288  86.5063 331.3197 0015855 281.7225  78.2138 13.39547424156708","mean_motion":13.39547424,"eccentricity":0.0015855,"inclination_deg":86.5063,"raan_deg":331.3197,"arg_perigee_deg":281.7225,"mean_anomaly_deg":78.2138,"bstar":3.4643e-5,"rev_number":15670,"period_min":107.49899363025,"perigee_km":1099.0916026739,"apogee_km":1122.8395469386,"semimajor_km":7489.1025748062,"source":"CELESTRAK","updated_at":"2026-09-22T09:00:26.121201Z"}}